DW2973 Frederiksvaerk DK current weather conditions

sailwx.info

Wind from 253 at 3 knots

Air temperature 10.6° C
Dewpoint 7.1° C

Last reported at 2018-Sep-23 04:07 UTC.
Time now 2018-Sep-23 04:36 UTC

Location: N 55°59' E 011°59'.
View on Google Maps.

See reports from other nearby stations

  
Tides and Currents Weather Stations Pressure Air Temp Water Temp Dewpoint Dewpoint Depression Visibility Wind Speed Wind Dir Waves Ship Positions
date/time (UTC)wind fromknots sea level pressurealtimeterstation pressurevisibilityair tempwater tempwave heightnotes
2018-Sep-23 04:07 253 3 10.6
2018-Sep-23 03:52 259 2 10.6
2018-Sep-23 03:37 239 4 10.6
2018-Sep-23 03:22 261 4 10.6
2018-Sep-23 03:07 233 3 10.6
2018-Sep-23 02:52 265 3 10.6
2018-Sep-23 02:37 228 4 11.1
2018-Sep-23 02:22 264 4 11.1
2018-Sep-23 02:07 233 4 11.1
2018-Sep-23 01:52 272 5 11.1
2018-Sep-23 01:37 341 4 11.1
2018-Sep-23 01:22 251 5 11.1
2018-Sep-23 01:07 242 5 11.1
2018-Sep-23 00:52 229 6 11.1
2018-Sep-23 00:37 245 5 11.1
2018-Sep-23 00:22 192 6 11.1
2018-Sep-23 00:07 229 6 11.1
2018-Sep-22 23:52 245 5 11.1
2018-Sep-22 23:37 254 5 11.1
2018-Sep-22 23:22 236 6 11.1
2018-Sep-22 23:07 244 4 11.1
2018-Sep-22 22:52 253 6 11.1
2018-Sep-22 22:37 249 6 11.1
2018-Sep-22 22:22 225 6 11.1
2018-Sep-22 22:06 262 5 11.1
2018-Sep-22 21:51 256 6 11.1
2018-Sep-22 21:36 257 6 11.7
2018-Sep-22 21:21 253 6 11.1
2018-Sep-22 21:06 245 6 11.1
2018-Sep-22 20:51 222 8 11.1
2018-Sep-22 20:36 234 6 11.1
2018-Sep-22 20:21 223 9 11.7
2018-Sep-22 19:51 225 9 11.7
2018-Sep-22 19:06 219 8 11.7
2018-Sep-22 18:36 250 7 11.1
2018-Sep-22 18:21 236 8 11.1
2018-Sep-22 18:06 229 9 11.1
2018-Sep-22 17:51 232 8 11.1
2018-Sep-22 17:35 219 7 11.7
2018-Sep-22 17:21 219 10 11.7
2018-Sep-22 17:06 232 7 11.7
2018-Sep-22 16:51 253 6 12.2
2018-Sep-22 16:36 225 7 12.2
2018-Sep-22 16:21 225 7 12.2
2018-Sep-22 16:06 262 6 12.2
2018-Sep-22 15:51 232 6 12.2
2018-Sep-22 15:36 259 5 12.2
2018-Sep-22 15:21 275 9 12.8
2018-Sep-22 15:06 226 6 12.8
2018-Sep-22 14:51 226 7 13.3
2018-Sep-22 14:36 229 8 13.3
2018-Sep-22 14:21 235 9 12.8
2018-Sep-22 14:06 225 9 12.8
2018-Sep-22 13:51 225 9 13.3
2018-Sep-22 13:36 230 9 12.8
2018-Sep-22 13:21 259 6 12.8
2018-Sep-22 13:06 238 4 11.7
2018-Sep-22 12:51 218 4 11.1
2018-Sep-22 12:36 248 9 11.7
2018-Sep-22 12:21 240 6 12.2
2018-Sep-22 12:06 205 8 11.7
2018-Sep-22 11:51 221 6 10.6
2018-Sep-22 11:36 216 6 9.4
2018-Sep-22 11:21 246 8 11.7
2018-Sep-22 11:06 211 10 13.3
2018-Sep-22 10:51 217 10 13.9
2018-Sep-22 10:36 213 12 13.3
2018-Sep-22 10:21 230 12 12.8
2018-Sep-22 10:06 246 13 12.2
2018-Sep-22 09:51 231 12 11.7
2018-Sep-22 09:36 225 10 12.2
2018-Sep-22 09:21 227 9 12.2
2018-Sep-22 09:06 198 11 11.1
2018-Sep-22 08:51 230 13 12.2
2018-Sep-22 08:36 227 6 12.8
2018-Sep-22 08:21 214 8 12.8
2018-Sep-22 08:06 215 7 12.8
2018-Sep-22 07:51 256 8 12.8
2018-Sep-22 07:36 219 6 12.2
2018-Sep-22 07:21 296 7 12.2
2018-Sep-22 07:06 225 7 12.2
2018-Sep-22 06:50 244 7 11.7
2018-Sep-22 06:35 259 8 11.7
2018-Sep-22 06:20 245 6 11.7
2018-Sep-22 06:05 236 7 11.7
2018-Sep-22 05:50 229 6 11.7
2018-Sep-22 05:35 253 6 11.7
2018-Sep-22 05:20 242 8 11.1
2018-Sep-22 05:05 242 6 11.1
2018-Sep-22 04:50 233 8 11.1
2018-Sep-22 04:35 234 6 11.1
2018-Sep-22 04:20 234 6 10.6
2018-Sep-22 04:05 241 5 11.1
2018-Sep-22 03:50 242 6 10.6
2018-Sep-22 03:35 247 6 11.1
2018-Sep-22 03:20 247 7 11.1
2018-Sep-22 03:05 248 8 11.1
2018-Sep-22 02:50 236 6 11.1
2018-Sep-22 02:35 238 7 11.1
2018-Sep-22 02:20 245 7 11.1
2018-Sep-22 02:05 233 7 10.6
2018-Sep-22 01:50 250 6 10.6
2018-Sep-22 01:35 234 9 10.6
2018-Sep-22 01:20 226 7 10.6
2018-Sep-22 01:05 232 7 10.6
2018-Sep-22 00:50 225 10 10.6
2018-Sep-22 00:35 230 9 10.0
2018-Sep-22 00:20 229 9 10.0
2018-Sep-22 00:05 226 11 10.0
2018-Sep-21 23:50 272 12 10.0
2018-Sep-21 23:35 217 13 10.0
2018-Sep-21 23:20 228 13 10.0
2018-Sep-21 23:05 232 16 10.0
2018-Sep-21 22:50 236 13 10.6
2018-Sep-21 22:35 240 14 10.6
2018-Sep-21 22:20 240 13 10.6
2018-Sep-21 22:05 229 12 10.6
2018-Sep-21 21:49 225 13 10.6
2018-Sep-21 21:35 214 14 10.6
2018-Sep-21 21:20 235 13 10.6
2018-Sep-21 21:05 232 14 10.6
2018-Sep-21 20:49 221 9 10.6
2018-Sep-21 20:34 227 9 10.0
2018-Sep-21 20:19 257 9 11.7
2018-Sep-21 20:04 226 15 12.2
2018-Sep-21 19:49 227 16 12.2
2018-Sep-21 19:34 206 13 11.7
2018-Sep-21 19:19 221 13 11.7
2018-Sep-21 19:04 226 13 11.7
2018-Sep-21 18:34 209 12 11.7
2018-Sep-21 18:04 219 12 12.2
2018-Sep-21 17:49 213 13 12.2
2018-Sep-21 17:34 215 13 12.8
2018-Sep-21 17:19 218 11 12.8
2018-Sep-21 17:04 227 11 12.8
2018-Sep-21 16:49 229 12 13.3
2018-Sep-21 16:34 225 13 13.3
2018-Sep-21 16:19 232 10 13.9
2018-Sep-21 16:04 203 13 13.9
2018-Sep-21 15:49 234 13 13.3
2018-Sep-21 15:34 219 13 13.3
2018-Sep-21 15:19 229 11 13.3
2018-Sep-21 15:04 227 12 13.3
2018-Sep-21 14:49 213 13 13.3
2018-Sep-21 14:34 233 11 13.3
2018-Sep-21 14:19 232 12 13.3
2018-Sep-21 14:04 214 13 13.3
2018-Sep-21 13:49 232 13 13.3
2018-Sep-21 13:34 203 13 13.9
2018-Sep-21 13:19 216 13 13.9
2018-Sep-21 13:04 226 13 14.4
2018-Sep-21 12:49 222 12 14.4
2018-Sep-21 12:34 222 11 15.0
2018-Sep-21 12:19 219 12 15.0
2018-Sep-21 11:49 236 15 17.2
2018-Sep-21 11:33 210 18 19.4
2018-Sep-21 11:19 202 11 21.1
2018-Sep-21 11:03 206 10 21.1
2018-Sep-21 10:48 208 10 21.7
2018-Sep-21 10:33 205 9 21.7
2018-Sep-21 10:18 219 10 21.7
2018-Sep-21 10:03 202 9 21.7
2018-Sep-21 09:48 187 9 21.7
2018-Sep-21 09:33 214 7 21.1
2018-Sep-21 09:18 223 3 20.6
2018-Sep-21 09:03 196 2 20.0
2018-Sep-21 08:48 135 2 19.4
2018-Sep-21 08:33 129 0 18.9
2018-Sep-21 08:18 122 0 18.3
2018-Sep-21 08:03 146 2 17.8
2018-Sep-21 07:48 100 0 17.8
2018-Sep-21 07:33 125 1 17.8
2018-Sep-21 07:18 184 0 17.2
2018-Sep-21 07:03 207 0 16.7
2018-Sep-21 06:48 188 0 16.7
2018-Sep-21 06:33 195 0 16.1
2018-Sep-21 06:18 159 1 16.1
2018-Sep-21 06:03 153 0 16.1
2018-Sep-21 05:48 093 0 16.1
2018-Sep-21 05:33 151 0 16.1
2018-Sep-21 05:18 149 0 16.1
2018-Sep-21 05:02 207 0 16.1
2018-Sep-21 04:47 109 15.6
2018-Sep-21 04:32 086 15.6
2018-Sep-21 04:17 130 15.6
2018-Sep-21 04:02 166 15.6